Location: Hilton Head Island
(32.2163°N, 80.7526°W)
Time: 03:26:06
(UTC-04:00)

Tiros 1 despin weight - Pass Details

Date: 16 February 2026
Orbit: 556 x 593 km, 48.2° (Epoch: 9 March)

Event Time Altitude Azimuth Distance (km) Brightness Sun altitude
Rises 21:51:32 0° 313° (NW) 2,736 - -47.0°
Reaches altitude 10° 21:53:49 10° 318° (NW) 1,843 - -47.5°
Maximum altitude 21:57:57 55° 37° (NE) 674 - -48.3°
Drops below altitude 10° 22:02:07 10° 115° (ESE) 1,855 - -49.2°
Sets 22:04:25 0° 120° (ESE) 2,756 - -49.6°
